Regional Weather Roundup
Issued by NWS

Home | Current Version | Previous Version | Text Only | Print | Product List | Glossary On
Versions: 1 2 3 4 5 6 7 8 9 10 11 12 13 14 15 16 17 18 19 20 21 22 23 24 25 26 27 28 29 30 31 32 33 34 35 36 37 38 39 40 41 42 43 44 45 46 47 48 49 50
000
ASUS43 KMPX 031101
RWRMN
WEATHER ROUNDUP FOR MINNESOTA
NATIONAL WEATHER SERVICE TWIN CITIES/CHANHASSEN MN
600 AM CDT FRI JUL 03 2015


NOTE: "FAIR" INDICATES FEW OR NO CLOUDS BELOW 12,000 FEET WITH NO
SIGNIFICANT WEATHER AND/OR OBSTRUCTIONS TO VISIBILITY. N/A MEANS
CURRENT SKY AND/OR WEATHER CONDITIONS ARE NOT AVAILABLE.

MNZ060>063-068>070-031200-
   Twin Cities Metro

CITY           SKY/WX    TMP DP  RH WIND       PRES   REMARKS
TWIN CITIES    PTCLDY    60  56  86 SW5       29.98S
ST PAUL        CLEAR     57  55  93 CALM      29.98S
CRYSTAL        FOG       56  53  90 CALM      29.96S VSB 1/2
BLAINE         CLEAR     57  55  94 CALM      29.97S FOG
LAKEVILLE      CLEAR     54  52  94 CALM      29.98S
EDEN PRAIRIE   CLEAR     57  55  93 SW3       29.97S
SOUTH ST PAUL  CLEAR     58  56  90 CALM      29.97S
LAKE ELMO      FAIR      55  54  94 CALM      29.99S
$$
MNZ001>005-007-008-013>017-022>024-027-028-031200-
   Northwest Minnesota

CITY           SKY/WX    TMP DP  RH WIND       PRES   REMARKS
BEMIDJI        MOCLDY    61  55  82 SW5       29.91R
HALLOCK        FOG       57  55  94 CALM      29.90R VSB<1/4
ROSEAU         HAZE      63  57  82 W3        29.89R VSB<1/4
WARROAD        FOG       61  57  88 W5        29.88S VSB 3/4
THIEF RVR FALL CLOUDY    61  59  94 CALM      29.92R VSB<1/4
CROOKSTON      FOG       57  57 100 CALM      29.92R VSB<1/4
FOSSTON        CLEAR     55  54  94 CALM      29.93R
DETROIT LAKES  CLEAR     61  59  94 SW3       29.95S
MOORHEAD       CLEAR     61  61 100 CALM      29.93S
PARK RAPIDS    CLEAR     58  53  84 S6        29.93F
MAHNOMEN       CLOUDY    58  57  94 S6        29.92S
$$
MNZ006-009>011-018-025>026-031200-
   North Central Minnesota

CITY           SKY/WX    TMP DP  RH WIND       PRES   REMARKS
BAUDETTE       CLEAR     61  58  90 W5        29.87R FOG
FLAG ISLAND    CLEAR     64  63  94 W10       29.85S FOG
INTL FALLS     CLOUDY    63  57  81 W5        29.86R
WASKISH        PTCLDY    64  61  88 W7        29.90R
BIG FORK       PTCLDY    61  54  77 SW3       29.90R
LONGVILLE      PTCLDY    63  55  77 SW7       29.92S
GRAND RAPIDS   PTCLDY    63  52  67 SW6       29.91F
CRANE LAKE     PTCLDY    63  55  77 NW2       29.87S
ORR            FAIR      61  52  72 CALM      29.86R
COOK           PTCLDY    63  55  77 SW3       29.89S
WALKER         PTSUNNY   64  55  75 SW7       29.91F
$$
MNZ012-019>021-037-031200-
   Northeast Minnesota

CITY           SKY/WX    TMP DP  RH WIND       PRES   REMARKS
DULUTH         CLOUDY    63  52  67 W13       29.91F
ELY            MOCLDY    63  55  77 SW6       29.87F
HIBBING        PTCLDY    61  52  72 SW3       29.90S
DULUTH HARBOR  CLOUDY    63  57  82 SW9       29.91S
SILVER BAY     MOCLDY    64  54  68 CALM      29.87S
GRAND MARAIS     N/A     54  52  93 W7        29.84S
G MARAIS ARPRT MOCLDY    61  54  77 SW6       29.88S
$$
MNZ029>031-032-039>041-046>048-054>057-064-031200-
   West Central Minnesota

CITY           SKY/WX    TMP DP  RH WIND       PRES   REMARKS
FERGUS FALLS   MOCLDY    59  57  94 CALM      29.96R
WHEATON        PTCLDY    55  54  94 CALM      29.98R
MORRIS         CLEAR     57  55  94 SW3       29.96F
ALEXANDRIA     CLEAR     57  53  86 SW6       29.98S
ELBOW LAKE     FAIR      56  55  94 SW6       29.96S
WADENA         MOCLDY    59  54  82 SW6       29.95S
GLENWOOD       CLEAR     54  52  94 SW8       29.98S
APPLETON       CLEAR     55  52  88 SW3       29.97S
BENSON         CLEAR     52  50  93 CALM      29.98S
ORTONVILLE     FAIR      59  55  88 W3        29.97S
MADISON          N/A     54  52  94 CALM      29.98S
WILLMAR        FAIR      55  52  88 CALM      30.01R
$$
MNZ033>034-036-042>043-049>051-058-059-031200-
   Central Minnesota

CITY           SKY/WX    TMP DP  RH WIND       PRES   REMARKS
ST CLOUD       CLEAR     50  49  96 CALM      29.97S
SAUK CENTRE    FAIR      52  50  93 CALM      29.97S
PAYNESVILLE    CLEAR     46  46  99 S3        29.98S
AITKIN         CLOUDY    63  54  72 SW6       29.93R
PINE RIVER     MOCLDY    61  54  77 CALM      29.97S
BRAINERD       MOCLDY    54  52  93 S5        29.95S
STAPLES        CLOUDY    57  54  88 CALM      29.95S
LONG PRAIRIE   FAIR      54  52  94 S6        29.97S
LITTLE FALLS   CLEAR     52  50  93 CALM      29.96F
LITCHFIELD     CLEAR     57  55  94 CALM      29.99S
BUFFALO        CLEAR     54  51  89 CALM      29.99R
MAPLE LAKE     CLEAR     54  53  96 CALM      29.98F
$$
MNZ037-044-045-052-053-031200-
   East Central Minnesota

CITY           SKY/WX    TMP DP  RH WIND       PRES   REMARKS
PRINCETON      FOG       52  52 100 CALM      29.98R VSB 1/2
MORA           CLEAR     54  52  94 CALM      29.98S
CAMBRIDGE      CLEAR     61  50  67 CALM      29.95S
RUSH CITY      MOCLDY    53  51  93 CALM      29.96S
MOOSE LAKE     FOG       50  50 100 CALM      29.93R VSB 1
HINCKLEY       FAIR      52  52 100 S3        29.96S FOG
CLOQUET        CLOUDY    61  52  72 SW7       29.93S
MCGREGOR       CLOUDY    59  54  82 SW5       29.94S
$$
MNZ071>073-080-081-089-090-097-098-031200-
   Southwest Minnesota

CITY           SKY/WX    TMP DP  RH WIND       PRES   REMARKS
MONTEVIDEO     CLEAR     54  50  87 W3        29.99S
GRANITE FALLS  CLEAR     52  51  95 CALM      30.00F
CANBY          CLEAR     58  55  90 W6        29.99F FOG
MARSHALL       CLEAR     55  48  76 W7        29.98S
REDWOOD FALLS  CLEAR     53  49  86 W3        29.99R
OLIVIA         CLEAR     52  50  93 SW5       29.99S
PIPESTONE      CLEAR     54  52  94 CALM      30.01S FOG
WINDOM         CLEAR     52  48  87 CALM      30.01S
WORTHINGTON      N/A     54  48  82 SW5       30.02S VSB<1/4
JACKSON        CLEAR     52  52 100 CALM      30.01F
TRACY          CLEAR     55  53  91 SW6       30.00S
SLAYTON        CLEAR     54  53  95 CALM      30.02R
$$
MNZ065>067-074>077-082>085-091>093-031200-
   South Central Minnesota

CITY           SKY/WX    TMP DP  RH WIND       PRES   REMARKS
MANKATO        CLEAR     55  52  88 S3        29.99S
NEW ULM        CLEAR     54  52  94 SW3       29.99S
ST JAMES       CLEAR     54  52  94 SW3       30.01S
FAIRMONT       CLEAR     55  46  71 CALM      30.00S
GLENCOE        CLEAR     56  52  86 CALM      29.98R
FARIBAULT      CLEAR     54  52  94 CALM      29.99F
OWATONNA       CLEAR     55  52  88 S3        30.00F
WASECA         CLEAR     52  50  93 CALM      30.01F
ALBERT LEA     CLEAR     54  54 100 CALM      30.01S
$$
MNZ078>079-086>088-094>096-031200-
   Southeast Minnesota

CITY           SKY/WX    TMP DP  RH WIND       PRES   REMARKS
ROCHESTER      CLEAR     53  51  93 SW5       30.00F
RED WING       CLEAR     54  52  94 CALM      29.97F
DODGE CENTER   CLEAR     55  54  94 W5        30.00S
WINONA         CLEAR     55  55 100 CALM      29.99F
AUSTIN         CLEAR     55  54  94 CALM      30.00F
PRESTON        CLEAR     55  51  83 SW3       30.01S
$$
ABBREVIATIONS USED IN REMARKS
   TC - TEMPERATURES IN CELSIUS
  WCI - WIND CHILL INDEX
   HX - HEAT INDEX
  VSB - VISIBILITY
$$



USA.gov is the U.S. government's official web portal to all federal, state and local government web resources and services.